| time (UTC) | temp F | wind direction | speed MPH | gust MPH | rain 1hr in | rain 24hr in | rain mn in | humidity % | barometer mb |
| 20260904070731 | 67 | 194 | 4.0 | 9.0 | 0.00 | 0.00 | 0.00 | 76 | 1006.5 |
| 20260904065719 | 67 | 199 | 5.0 | 11.0 | 0.00 | 0.00 | 0.00 | 75 | 1006.4 |
| 20260904064743 | 67 | 4 | 6.0 | 11.0 | 0.00 | 0.00 | 0.00 | 75 | 1006.5 |
| 20260904062541 | 67 | 4 | 4.0 | 10.0 | 0.00 | 0.00 | 0.00 | 74 | 1006.7 |
| 20260904061600 | 67 | 4 | 5.0 | 12.0 | 0.00 | 0.00 | 0.00 | 73 | 1006.5 |
| 20260904060538 | 68 | 222 | 5.0 | 12.0 | 0.00 | 0.00 | 0.00 | 73 | 1006.6 |
| 20260904055553 | 68 | 4 | 4.0 | 9.0 | 0.00 | 0.00 | 0.00 | 73 | 1006.6 |
| 20260904053512 | 68 | 4 | 4.0 | 8.0 | 0.00 | 0.00 | 0.00 | 73 | 1006.6 |
| 20260904051328 | 69 | 203 | 4.0 | 9.0 | 0.00 | 0.00 | 0.00 | 71 | 1006.5 |
| 20260904050303 | 69 | 163 | 4.0 | 9.0 | 0.00 | 0.00 | 0.00 | 70 | 1006.5 |
| 20260904045246 | 69 | 165 | 3.0 | 9.0 | 0.00 | 0.00 | 0.00 | 69 | 1006.5 |
| 20260904044256 | 70 | 195 | 3.0 | 7.0 | 0.00 | 0.00 | 0.00 | 68 | 1006.4 |
| 20260904043316 | 70 | 146 | 3.0 | 8.0 | 0.00 | 0.00 | 0.00 | 67 | 1006.4 |
| 20260904041053 | 70 | 188 | 4.0 | 9.0 | 0.00 | 0.00 | 0.00 | 66 | 1006.2 |
| 20260904034933 | 71 | 4 | 4.0 | 9.0 | 0.00 | 0.00 | 0.00 | 65 | 1006.1 |
| 20260904033946 | 71 | 175 | 4.0 | 9.0 | 0.00 | 0.00 | 0.00 | 64 | 1006.0 |
| 20260904033004 | 71 | 161 | 4.0 | 8.0 | 0.00 | 0.00 | 0.00 | 64 | 1005.9 |
| 20260904032020 | 71 | 4 | 3.0 | 6.0 | 0.00 | 0.00 | 0.00 | 63 | 1005.9 |
| 20260904025948 | 71 | 206 | 3.0 | 5.0 | 0.00 | 0.00 | 0.00 | 63 | 1005.5 |
| 20260904024948 | 71 | 4 | 3.0 | 6.0 | 0.00 | 0.00 | 0.00 | 62 | 1005.4 |
| 20260904023958 | 71 | 215 | 4.0 | 7.0 | 0.00 | 0.00 | 0.00 | 62 | 1005.3 |
| 20260904023016 | 72 | 227 | 4.0 | 7.0 | 0.00 | 0.00 | 0.00 | 62 | 1005.0 |
| 20260904022036 | 72 | 202 | 3.0 | 6.0 | 0.00 | 0.00 | 0.00 | 61 | 1004.8 |
| 20260904021051 | 72 | 190 | 3.0 | 5.0 | 0.00 | 0.00 | 0.00 | 60 | 1004.7 |
| 20260904020104 | 73 | 194 | 3.0 | 6.0 | 0.00 | 0.00 | 0.00 | 59 | 1004.5 |
| 20260904015119 | 74 | 188 | 4.0 | 10.0 | 0.00 | 0.00 | 0.00 | 56 | 1004.6 |
| 20260904014048 | 75 | 141 | 4.0 | 10.0 | 0.00 | 0.00 | 0.00 | 51 | 1004.6 |
| 20260904011847 | 75 | 155 | 2.0 | 5.0 | 0.00 | 0.00 | 0.00 | 50 | 1004.4 |
| 20260904010839 | 75 | 167 | 3.0 | 9.0 | 0.00 | 0.00 | 0.00 | 49 | 1004.4 |
| 20260904004726 | 76 | 177 | 0.0 | 0.0 | 0.00 | 0.00 | 0.00 | 50 | 1004.3 |
| 20260904003740 | 76 | 176 | 0.0 | 0.0 | 0.00 | 0.00 | 0.00 | 50 | 1004.4 |
| 20260904001616 | 77 | 93 | 0.0 | 1.0 | 0.00 | 0.00 | 0.00 | 48 | 1004.5 |
| 20260904000638 | 77 | 93 | 0.0 | 0.0 | 0.00 | 0.00 | 0.00 | 49 | 1004.5 |
| 20260903233258 | 77 | 58 | 2.0 | 5.0 | 0.00 | 0.00 | 0.00 | 50 | 1004.6 |
| 20260903232319 | 77 | 58 | 1.0 | 4.0 | 0.00 | 0.00 | 0.00 | 48 | 1004.6 |
| 20260903231336 | 77 | 57 | 1.0 | 5.0 | 0.00 | 0.00 | 0.00 | 49 | 1004.5 |
| 20260903230336 | 77 | 52 | 2.0 | 5.0 | 0.00 | 0.00 | 0.00 | 51 | 1004.5 |
| 20260903225325 | 79 | 46 | 2.0 | 5.0 | 0.00 | 0.00 | 0.00 | 46 | 1004.5 |
| 20260903224302 | 80 | 55 | 1.0 | 5.0 | 0.00 | 0.00 | 0.00 | 43 | 1004.5 |
| 20260903223238 | 81 | 32 | 1.0 | 4.0 | 0.00 | 0.00 | 0.00 | 41 | 1004.5 |
| 20260903222257 | 80 | 258 | 0.0 | 3.0 | 0.00 | 0.00 | 0.00 | 42 | 1004.4 |
| 20260903221227 | 80 | 192 | 1.0 | 3.0 | 0.00 | 0.00 | 0.00 | 43 | 1004.5 |
| 20260903220247 | 79 | 153 | 0.0 | 2.0 | 0.00 | 0.00 | 0.00 | 44 | 1004.5 |
| 20260903215306 | 79 | 67 | 1.0 | 5.0 | 0.00 | 0.00 | 0.00 | 44 | 1004.7 |
| 20260903214319 | 79 | 103 | 0.0 | 5.0 | 0.00 | 0.00 | 0.00 | 44 | 1004.8 |
| 20260903213253 | 78 | 29 | 1.0 | 1.0 | 0.00 | 0.00 | 0.00 | 43 | 1004.9 |
| 20260903212300 | 79 | 45 | 2.0 | 8.0 | 0.00 | 0.00 | 0.00 | 43 | 1005.1 |
| 20260903211244 | 79 | 145 | 3.0 | 8.0 | 0.00 | 0.00 | 0.00 | 42 | 1005.0 |
| 20260903210230 | 80 | 78 | 2.0 | 9.0 | 0.00 | 0.00 | 0.00 | 41 | 1005.2 |
| 20260903205217 | 80 | 100 | 4.0 | 9.0 | 0.00 | 0.00 | 0.00 | 42 | 1005.2 |
| 20260903204234 | 84 | 129 | 3.0 | 8.0 | 0.00 | 0.00 | 0.00 | 38 | 1005.2 |
| 20260903203223 | 83 | 317 | 4.0 | 8.0 | 0.00 | 0.00 | 0.00 | 40 | 1005.2 |
| 20260903201058 | 81 | 359 | 3.0 | 10.0 | 0.00 | 0.00 | 0.00 | 45 | 1005.7 |
| 20260903200107 | 80 | 4 | 3.0 | 9.0 | 0.00 | 0.00 | 0.00 | 48 | 1005.7 |
| 20260903195046 | 77 | 111 | 3.0 | 9.0 | 0.00 | 0.00 | 0.00 | 51 | 1006.0 |
| 20260903194046 | 76 | 166 | 3.0 | 5.0 | 0.00 | 0.00 | 0.00 | 53 | 1006.1 |
| 20260903193026 | 75 | 193 | 2.0 | 5.0 | 0.00 | 0.00 | 0.00 | 61 | 1006.1 |
| 20260903192034 | 73 | 142 | 3.0 | 7.0 | 0.00 | 0.00 | 0.00 | 64 | 1006.2 |
| 20260903191046 | 73 | 191 | 4.0 | 8.0 | 0.00 | 0.00 | 0.00 | 62 | 1006.3 |
| 20260903190045 | 73 | 177 | 6.0 | 11.0 | 0.00 | 0.00 | 0.00 | 61 | 1006.4 |
| 20260903183912 | 74 | 186 | 6.0 | 13.0 | 0.00 | 0.00 | 0.00 | 58 | 1006.9 |
| 20260903182912 | 75 | 145 | 5.0 | 11.0 | 0.00 | 0.00 | 0.00 | 55 | 1006.9 |
| 20260903181912 | 75 | 215 | 3.0 | 11.0 | 0.00 | 0.00 | 0.00 | 56 | 1007.0 |
| 20260903180905 | 74 | 4 | 5.0 | 11.0 | 0.00 | 0.00 | 0.00 | 56 | 1007.1 |
| 20260903175913 | 74 | 256 | 5.0 | 10.0 | 0.00 | 0.00 | 0.00 | 57 | 1007.1 |
| 20260903173717 | 73 | 4 | 4.0 | 9.0 | 0.00 | 0.00 | 0.00 | 61 | 1007.1 |
| 20260903172722 | 72 | 221 | 3.0 | 9.0 | 0.00 | 0.00 | 0.00 | 65 | 1007.2 |
| 20260903171717 | 71 | 161 | 4.0 | 9.0 | 0.00 | 0.00 | 0.00 | 64 | 1007.2 |
| 20260903170709 | 71 | 225 | 4.0 | 9.0 | 0.00 | 0.00 | 0.00 | 65 | 1007.0 |
| 20260903165656 | 71 | 191 | 5.0 | 9.0 | 0.00 | 0.00 | 0.00 | 63 | 1007.0 |
| 20260903164709 | 73 | 195 | 3.0 | 7.0 | 0.00 | 0.00 | 0.00 | 56 | 1007.0 |
| 20260903163638 | 73 | 172 | 3.0 | 10.0 | 0.00 | 0.00 | 0.00 | 55 | 1006.8 |
| 20260903162647 | 74 | 176 | 3.0 | 10.0 | 0.00 | 0.00 | 0.00 | 55 | 1006.8 |
| 20260903161655 | 73 | 220 | 2.0 | 6.0 | 0.00 | 0.00 | 0.00 | 57 | 1006.9 |
| 20260903160702 | 72 | 163 | 2.0 | 5.0 | 0.00 | 0.00 | 0.00 | 59 | 1006.9 |
| 20260903154445 | 71 | 175 | 3.0 | 8.0 | 0.00 | 0.00 | 0.00 | 61 | 1006.9 |
| 20260903153429 | 71 | 186 | 2.0 | 6.0 | 0.00 | 0.00 | 0.00 | 64 | 1006.8 |
| 20260903152436 | 70 | 167 | 2.0 | 5.0 | 0.00 | 0.00 | 0.00 | 64 | 1006.9 |
| 20260903151421 | 70 | 162 | 3.0 | 7.0 | 0.00 | 0.00 | 0.00 | 67 | 1006.9 |
| 20260903150406 | 69 | 199 | 4.0 | 11.0 | 0.00 | 0.00 | 0.00 | 69 | 1006.6 |
| 20260903145431 | 69 | 210 | 6.0 | 11.0 | 0.00 | 0.00 | 0.00 | 70 | 1006.7 |
| 20260903144426 | 68 | 164 | 4.0 | 9.0 | 0.00 | 0.00 | 0.00 | 71 | 1006.6 |
| 20260903143407 | 68 | 221 | 6.0 | 11.0 | 0.00 | 0.00 | 0.00 | 72 | 1006.5 |
| 20260903142417 | 68 | 223 | 6.0 | 11.0 | 0.00 | 0.00 | 0.00 | 72 | 1006.5 |
| 20260903135145 | 67 | 215 | 5.0 | 9.0 | 0.00 | 0.00 | 0.00 | 71 | 1006.6 |
| 20260903134137 | 67 | 215 | 4.0 | 7.0 | 0.00 | 0.00 | 0.00 | 72 | 1006.5 |
| 20260903133147 | 66 | 242 | 3.0 | 5.0 | 0.00 | 0.00 | 0.00 | 72 | 1006.6 |
| 20260903132209 | 66 | 226 | 2.0 | 5.0 | 0.00 | 0.00 | 0.00 | 72 | 1006.6 |
| 20260903131158 | 66 | 4 | 3.0 | 5.0 | 0.00 | 0.00 | 0.00 | 71 | 1006.6 |
| 20260903130217 | 66 | 202 | 2.0 | 5.0 | 0.00 | 0.00 | 0.00 | 70 | 1006.4 |
| 20260903125206 | 66 | 184 | 2.0 | 6.0 | 0.00 | 0.00 | 0.00 | 68 | 1006.4 |
| 20260903124221 | 66 | 182 | 2.0 | 6.0 | 0.00 | 0.00 | 0.00 | 68 | 1006.3 |
| 20260903123150 | 66 | 187 | 2.0 | 4.0 | 0.00 | 0.00 | 0.00 | 66 | 1006.2 |
| 20260903122141 | 66 | 185 | 2.0 | 6.0 | 0.00 | 0.00 | 0.00 | 64 | 1006.1 |
| 20260903121131 | 67 | 190 | 3.0 | 6.0 | 0.00 | 0.00 | 0.00 | 64 | 1006.0 |
| 20260903120146 | 67 | 200 | 3.0 | 6.0 | 0.00 | 0.00 | 0.00 | 63 | 1005.7 |
| 20260903115121 | 67 | 210 | 3.0 | 7.0 | 0.00 | 0.00 | 0.00 | 62 | 1005.5 |
| 20260903114132 | 67 | 184 | 4.0 | 7.0 | 0.00 | 0.00 | 0.00 | 62 | 1005.4 |
| 20260903113146 | 67 | 215 | 3.0 | 8.0 | 0.00 | 0.00 | 0.00 | 62 | 1005.2 |
| 20260903112158 | 67 | 221 | 5.0 | 8.0 | 0.00 | 0.00 | 0.00 | 61 | 1005.1 |
| 20260903111204 | 67 | 210 | 3.0 | 7.0 | 0.00 | 0.00 | 0.00 | 61 | 1005.0 |
| 20260903105017 | 68 | 225 | 3.0 | 5.0 | 0.00 | 0.00 | 0.00 | 60 | 1005.2 |
| 20260903104011 | 68 | 209 | 3.0 | 8.0 | 0.00 | 0.00 | 0.00 | 60 | 1005.2 |
| 20260903101854 | 69 | 206 | 5.0 | 10.0 | 0.00 | 0.00 | 0.00 | 59 | 1005.4 |
| 20260903094602 | 69 | 194 | 3.0 | 7.0 | 0.00 | 0.00 | 0.00 | 59 | 1005.6 |
| 20260903093558 | 69 | 185 | 4.0 | 10.0 | 0.00 | 0.00 | 0.00 | 58 | 1005.5 |
| 20260903092554 | 70 | 186 | 5.0 | 10.0 | 0.00 | 0.00 | 0.00 | 57 | 1005.5 |
| 20260903091531 | 70 | 202 | 4.0 | 9.0 | 0.00 | 0.00 | 0.00 | 57 | 1005.5 |
| 20260903090527 | 70 | 173 | 4.0 | 8.0 | 0.00 | 0.00 | 0.00 | 56 | 1005.6 |
| 20260903085512 | 70 | 161 | 3.0 | 5.0 | 0.00 | 0.00 | 0.00 | 55 | 1005.7 |
| 20260903084527 | 70 | 154 | 3.0 | 8.0 | 0.00 | 0.00 | 0.00 | 54 | 1005.5 |
| 20260903083528 | 71 | 148 | 4.0 | 8.0 | 0.00 | 0.00 | 0.00 | 54 | 1005.5 |
| 20260903082510 | 71 | 196 | 4.0 | 8.0 | 0.00 | 0.00 | 0.00 | 54 | 1005.6 |
| 20260903081450 | 71 | 179 | 4.0 | 7.0 | 0.00 | 0.00 | 0.00 | 54 | 1005.9 |
| 20260903080434 | 71 | 194 | 3.0 | 7.0 | 0.00 | 0.00 | 0.00 | 53 | 1006.0 |
| 20260903075422 | 71 | 225 | 3.0 | 6.0 | 0.00 | 0.00 | 0.00 | 53 | 1006.1 |
| 20260903074359 | 71 | 207 | 3.0 | 6.0 | 0.00 | 0.00 | 0.00 | 52 | 1005.9 |
| 20260903073412 | 71 | 204 | 3.0 | 6.0 | 0.00 | 0.00 | 0.00 | 52 | 1006.0 |
| 20260903072437 | 71 | 183 | 3.0 | 6.0 | 0.00 | 0.00 | 0.00 | 51 | 1006.0 |